Thermal, CA

11:51 PM PST on January 20, 2017 (GMT -0800)
Thermal

Weather History for KTRM - August, 2013

Change the Weather History Date:

Saturday, August 31, 2013

  Actual Average Record
Temperature  
Mean Temperature 93 °F 88 °F  
Max Temperature 104 °F 105 °F 120 °F (1950)
Min Temperature 82 °F 71 °F 52 °F (1999)
Degree Days  
Heating Degree Days 0 0  
Month to date heating degree days 0 0  
Since 1 June heating degree days 0 0  
Since 1 July heating degree days 0 0  
Cooling Degree Days 28 23  
Month to date cooling degree days 766 766  
Year to date cooling degree days 3284 2833  
Since 1 June cooling degree days 2377 2160  
Growing Degree Days 42 (Base 50)    
Moisture  
Dew Point 70 °F    
Average Humidity 58    
Maximum Humidity 85    
Minimum Humidity 31    
Precipitation  
Precipitation T in 0.01 in 0.51 in (1954)
Month to date precipitation 1.17 0.19  
Year to date precipitation 1.69 2.15  
Since 1 July precipitation 1.25  
Snow  
Snow 0.00 in - - ()
Month to date snowfall 0.0  
Year to date snowfall 0.0  
Snow Depth 0.00 in    
Sea Level Pressure  
Sea Level Pressure 29.81 in    
Wind  
Wind Speed 3 mph (West)    
Max Wind Speed 18 mph    
Max Gust Speed 26 mph    
Visibility 10 miles    
Events Thunderstorm    
T = Trace of Precipitation, MM = Missing Value Source: NWS Daily Summary

Daily Weather History Graph

Daily Weather History Graph

Search for Another Location

Airport or City:

Trip Planner

Search our weather history database for the weather conditions in past years. The results will help you decide how hot, cold, wet, or windy it might be!

Date:

Astronomy

Aug. 31, 2013 Rise Set
Actual Time 6:18 AM PDT 7:10 PM PDT
Civil Twilight 5:52 AM PDT 7:36 PM PDT
Nautical Twilight 5:22 AM PDT 8:06 PM PDT
Astronomical Twilight 4:51 AM PDT 8:37 PM PDT
Moon 1:58 AM PDT (8/31) 4:05 PM PDT (8/31)
Length of Visible Light 13h 43m
Length of Day
12h 52m
Waning Crescent, 20% of the Moon is Illuminated
Aug 31
Waning Crescent
Sep 5
New
Sep 12
First Quarter
Sep 19
Full
Sep 26
Last Quarter

Hourly Weather History & Observations

Time (PDT) Temp. Heat Index Dew Point Humidity Pressure Visibility Wind Dir Wind Speed Gust Speed Precip Events Conditions
12:52 AM 84.9 °F 94.1 °F 75.9 °F 74% 29.87 in 10.0 mi Calm Calm - N/A   Clear
1:52 AM 84.0 °F 92.6 °F 75.9 °F 76% 29.86 in 10.0 mi WSW 3.5 mph - 0.00 in   Clear
2:52 AM 82.9 °F 90.8 °F 75.9 °F 79% 29.85 in 10.0 mi Calm Calm - N/A   Clear
3:52 AM 82.9 °F 90.8 °F 75.9 °F 79% 29.83 in 10.0 mi Calm Calm - N/A   Clear
4:52 AM 82.9 °F 91.8 °F 77.0 °F 82% 29.83 in 10.0 mi WSW 3.5 mph - N/A   Clear
5:52 AM 84.9 °F 92.1 °F 73.9 °F 69% 29.85 in 10.0 mi NW 3.5 mph - N/A   Clear
6:52 AM 86.0 °F 91.5 °F 71.1 °F 61% 29.86 in 10.0 mi NW 4.6 mph - N/A   Clear
7:52 AM 88.0 °F 94.7 °F 72.0 °F 59% 29.87 in 10.0 mi NNW 3.5 mph - N/A   Clear
8:52 AM 91.9 °F 98.4 °F 71.1 °F 50% 29.87 in 10.0 mi WNW 6.9 mph - N/A   Clear
9:52 AM 93.9 °F 100.8 °F 71.1 °F 47% 29.88 in 10.0 mi WNW 3.5 mph - N/A   Clear
10:52 AM 98.1 °F 106.5 °F 71.1 °F 42% 29.86 in 10.0 mi Variable 3.5 mph - N/A   Clear
11:52 AM 99.0 °F 107.0 °F 71.1 °F 40% 29.84 in 10.0 mi South 5.8 mph - N/A Thunderstorm Clear
12:07 PM 100.4 °F 107.8 °F 69.8 °F 37% 29.83 in 10.0 mi SSW 6.9 mph - N/A   Clear
12:52 PM 100.9 °F 108.2 °F 69.1 °F 36% 29.81 in 10.0 mi East 4.6 mph - N/A   Clear
1:35 PM 102.2 °F 110.0 °F 69.8 °F 35% 29.79 in 10.0 mi South 4.6 mph - N/A Thunderstorm Clear
1:52 PM 102.9 °F 109.1 °F 68.0 °F 32% 29.80 in 7.0 mi SW 13.8 mph 19.6 mph N/A Thunderstorm Partly Cloudy
2:10 PM 100.4 °F 103.6 °F 64.4 °F 31% 29.77 in 10.0 mi West 15.0 mph 24.2 mph N/A Thunderstorm Partly Cloudy
2:18 PM 100.4 °F 104.9 °F 66.2 °F 33% 29.77 in 10.0 mi West 12.7 mph - N/A   Partly Cloudy
2:52 PM 100.9 °F 105.3 °F 66.0 °F 32% 29.76 in 10.0 mi WNW 9.2 mph - N/A   Clear
3:52 PM 102.0 °F 106.6 °F 66.0 °F 31% 29.73 in 10.0 mi West 4.6 mph - N/A   Clear
4:52 PM 102.9 °F 108.3 °F 66.9 °F 31% 29.72 in 10.0 mi Variable 3.5 mph - N/A   Clear
5:52 PM 102.0 °F 107.3 °F 66.9 °F 32% 29.71 in 10.0 mi South 4.6 mph - N/A   Clear
6:52 PM 98.1 °F 106.5 °F 71.1 °F 42% 29.73 in 10.0 mi SE 4.6 mph - N/A   Clear
7:52 PM 96.1 °F 102.9 °F 70.0 °F 43% 29.76 in 10.0 mi SE 3.5 mph - N/A   Clear
8:52 PM 96.1 °F 101.0 °F 68.0 °F 40% 29.78 in 10.0 mi North 6.9 mph - N/A   Clear
9:52 PM 93.9 °F 98.6 °F 68.0 °F 43% 29.78 in 10.0 mi NNW 13.8 mph 23.0 mph N/A   Clear
10:52 PM 93.0 °F 97.4 °F 68.0 °F 44% 29.78 in 10.0 mi NNW 13.8 mph - N/A   Clear
11:52 PM 91.0 °F 95.2 °F 68.0 °F 47% 29.77 in 10.0 mi NNW 18.4 mph - N/A   Clear